Terminal Aerodrome Forecast
Issued by NWS Key West, FL

Home | Current Version | Previous Version | Text Only | Print | Product List | Glossary On
Versions: 1 2 3 4 5 6 7 8 9 10 11 12 13 14 15 16 17 18 19 20 21 22 23 24 25 26 27 28 29 30 31 32 33 34 35 36 37 38 39 40 41 42 43
000
FTUS42 KKEY 211800 AAA
TAFEYW
TAF AMD
KEYW 211823Z 2118/2218 06007KT P6SM VCTS SCT025CB
      TEMPO 2120/2123 VRB10G19KT 1SM +TSRA BKN025CB
     FM220200 10007KT P6SM FEW025=

USA.gov is the U.S. government's official web portal to all federal, state and local government web resources and services.